Starlink 32610

operational
NORAD ID: 61971 Int'l Des: 2024-210 Owner: SPXS Country: US Constellation: starlink
LEOCIRCULAR

About Starlink 32610

Description loading...

Live Position

Loading 3D Globe...

Upcoming Passes

Altitude History

Altitude vs Time

uPlot chart will show altitude changes over time

Two-Line Element Set

1 61971U 24210N 26034.33754120 .00025850 00000-0 94464-3 0 9993
2 61971 43.0057 14.0503 0001878 282.1044 77.9597 15.27612673 69664
Epoch: Feb 3, 2026 • Age: 15 hours

Current Status

Altitude 484.4 km
Velocity 7.62 km/s
Sub-Earth Point -9.73°S, 80.87°E
Launch Date Nov 14, 2024
Age 1.2 years
Type internet

Technical Details

Classification Payload
Mass 730.00 kg
Dry Mass 700.00 kg
Total Mass 730.00 kg
Length 0.30 m
Diameter 4.10 m
Span 29.00 m
Shape Box + pan
Manufacturer SPXS
Bus Type Starlink V2M
Phase Status In Orbit
Owner/State SPXS/US

Large Constellations

Loading constellations...